Regional Weather Roundup
Issued by NWS

Home | Current Version | Previous Version | Text Only | Print | Product List | Glossary Off
Versions: 1 2 3 4 5 6 7 8 9 10 11 12 13 14 15 16 17 18 19 20 21 22 23 24 25 26 27 28 29 30 31 32 33 34 35 36 37 38 39 40 41 42 43 44 45 46 47 48 49 50

000
ASUS43 KBIS 241720
RWRND

NORTH DAKOTA REGIONAL WEATHER ROUNDUP
NATIONAL WEATHER SERVICE BISMARCK ND
1200 PM CDT THU APR 24 2014

NOTE: "FAIR" INDICATES FEW OR NO CLOUDS BELOW 12,000 FEET WITH NO
SIGNIFICANT WEATHER AND/OR OBSTRUCTIONS TO VISIBILITY.


NDZ001>003-009>011-017-241800-
NORTHWEST NORTH DAKOTA

CITY           SKY/WX    TMP DP  RH WIND       PRES   REMARKS
WILLISTON      PTSUNNY   54  36  50 NW16      29.74R
MINOT          MOSUNNY   53  32  44 SW17      29.68F
MINOT AFB      MOSUNNY   51  36  57 W14       29.68R
$$

NDZ018>021-031>035-040>046-241800-
SOUTHWEST NORTH DAKOTA

CITY           SKY/WX    TMP DP  RH WIND       PRES   REMARKS
BISMARCK       SUNNY     60  25  26 NW12G23   29.74F
DICKINSON      SUNNY     56  21  25 W23G35    29.74S
GARRISON         N/A     54  32  43 W17G28    29.71S
HETTINGER ARPT SUNNY     55  20  25 W21G35    29.79S
$$

NDZ004>008-012>016-024-026-027-054-241800-
NORTHEAST NORTH DAKOTA

CITY           SKY/WX    TMP DP  RH WIND       PRES   REMARKS
GRAND FORKS    CLOUDY    42  40  92 SE13      29.72F
GRND FRKS AFB  CLOUDY    42  42 100 S9        29.75S
DEVILS LAKE    CLOUDY    43  37  81 S5        29.70F
$$

NDZ022-023-025-028>030-036>039-047>053-241800-
SOUTHEAST NORTH DAKOTA

CITY           SKY/WX    TMP DP  RH WIND       PRES   REMARKS
FARGO          LGT RAIN  42  40  92 S6        29.74F FOG
JAMESTOWN      MOSUNNY   54  42  64 NW10      29.70S
$$




USA.gov is the U.S. government's official web portal to all federal, state and local government web resources and services.